Regional Weather Roundup
Issued by NWS

Home | Current Version | Previous Version | Text Only | Print | Product List | Glossary On
Versions: 1 2 3 4 5 6 7 8 9 10 11 12 13 14 15 16 17 18 19 20 21 22 23 24 25 26 27 28 29 30 31 32 33 34 35 36
000
ASUS44 KBMX 230610
RWRAL

ALABAMA REGIONAL WEATHER ROUNDUP
NATIONAL WEATHER SERVICE BIRMINGHAM AL
100 AM CDT THU OCT 23 2014

NOTE: "FAIR" INDICATES FEW OR NO CLOUDS BELOW 12,000 FEET
WITH NO SIGNIFICANT WEATHER AND/OR OBSTRUCTIONS TO VISIBILITY.

THE REMARK "TC" DENOTES TEMPERATURE IN DEGREES CELSIUS.

ALZ001>011-014-016>018-020-230700-
NORTH ALABAMA

CITY           SKY/WX    TMP DP  RH WIND       PRES   REMARKS
MUSCLE SHOALS  CLEAR     44  39  82 CALM      30.18F
6HR MIN TEMP:  43; 6HR MAX TEMP:  59;

HUNTSVILLE     CLEAR     50  41  71 NE8       30.15F
6HR MIN TEMP:  50; 6HR MAX TEMP:  60;

DECATUR        CLEAR     48  41  76 NE5       30.17S
6HR MIN TEMP:  47; 6HR MAX TEMP:  56;

HALEYVILLE     FAIR      41  40  96 CALM      30.17F
6HR MIN TEMP:  41; 6HR MAX TEMP:  52;

GADSDEN        CLEAR     45  37  76 N6        30.15S
6HR MIN TEMP:  45; 6HR MAX TEMP:  57;

$$

ALZ012-013-022-023-030>036-040>044-230700-
WEST CENTRAL ALABAMA

CITY           SKY/WX    TMP DP  RH WIND       PRES   REMARKS
TUSCALOOSA     CLEAR     46  42  86 N3        30.14S
6HR MIN TEMP:  45; 6HR MAX TEMP:  60;

$$

ALZ015-024>027-033>036-040>044-230700-
CENTRAL ALABAMA

CITY           SKY/WX    TMP DP  RH WIND       PRES   REMARKS
BIRMINGHAM     CLEAR     46  42  86 CALM      30.15F
6HR MIN TEMP:  46; 6HR MAX TEMP:  57;

MONTGOMERY     CLEAR     53  44  71 NE5       30.10F
6HR MIN TEMP:  53; 6HR MAX TEMP:  61;

SHELBY CO ARPT CLEAR     51  44  77 CALM      30.13F
6HR MIN TEMP:  50; 6HR MAX TEMP:  61;

MAXWELL AFB    CLEAR     54  44  70 NE7       30.09F
6HR MIN TEMP:  49; 6HR MAX TEMP:  61;

GREENVILLE     FAIR      51  43  74 N6        30.09F
6HR MIN TEMP:  49; 6HR MAX TEMP:  61;

$$

ALZ019-021-028-029-037-038-045>048-230700-
EAST CENTRAL ALABAMA

CITY           SKY/WX    TMP DP  RH WIND       PRES   REMARKS
ANNISTON       CLEAR     41  39  93 CALM      30.14S
6HR MIN TEMP:  41; 6HR MAX TEMP:  57;

ALEXANDER CITY CLEAR     49  46  89 CALM      30.11S
6HR MIN TEMP:  49; 6HR MAX TEMP:  59;

AUBURN         CLEAR     48  37  66 N10       30.12S
6HR MIN TEMP:  48; 6HR MAX TEMP:  57;

$$

ALZ051>064-230700-
SOUTHWEST ALABAMA

CITY           SKY/WX    TMP DP  RH WIND       PRES   REMARKS
MOBILE         CLEAR     52  45  77 N6        30.08F
6HR MIN TEMP:  51; 6HR MAX TEMP:  64;

BROOKLEY FIELD CLEAR     54  49  83 N7        30.09F
6HR MIN TEMP:  53; 6HR MAX TEMP:  70;

EVERGREEN      CLEAR     47  43  86 N3        30.08F
6HR MIN TEMP:  46; 6HR MAX TEMP:  61;

$$

ALZ049-050-065>069-230700-
SOUTHEAST ALABAMA

CITY           SKY/WX    TMP DP  RH WIND       PRES   REMARKS
DOTHAN         CLEAR     49  45  86 N7        30.10F
6HR MIN TEMP:  46; 6HR MAX TEMP:  60;

OZARK          CLEAR     52  45  77 N7        30.07F
6HR MIN TEMP:  50; 6HR MAX TEMP:  65;

TROY           CLEAR     46  42  86 CALM      30.10S
6HR MIN TEMP:  43; 6HR MAX TEMP:  59;

EUFAULA        FAIR      48  45  89 CALM      30.07F
6HR MIN TEMP:  46; 6HR MAX TEMP:  54;

$$



USA.gov is the U.S. government's official web portal to all federal, state and local government web resources and services.